• In Austria
  • List of Countries
  • For 7 days
  • Water Temperature
  • Satellite Maps
  • Weather Map
  • News
  • Weather Widgets
  • user-avatar
    Login

    Hourly Weather Kazaniv

    Today, 18 July, Wednesday

    Time Temperature Precipitation Wind Pressure Humidity
    00:00 +20°C° 0 mm 1 mps 723 mmHg 94%
    01:00 +20°C° 0 mm 1 mps 723 mmHg 92%
    02:00 +15°C° 0 mm 2 mps 724 mmHg 98%
    03:00 +15°C° 0 mm 1 mps 723 mmHg 99%
    04:00 +15°C° 0 mm 2 mps 723 mmHg 96%
    05:00 +16°C° 0 mm 2 mps 723 mmHg 92%
    06:00 +16°C° 0 mm 2 mps 723 mmHg 91%
    07:00 +18°C° 0 mm 1 mps 723 mmHg 93%
    08:00 +18°C° 0 mm 1 mps 723 mmHg 93%
    09:00 +20°C° 0 mm 2 mps 723 mmHg 91%
    10:00 +19°C° 0 mm 3 mps 724 mmHg 92%
    11:00 +20°C° 0 mm 2 mps 724 mmHg 93%
    12:00 +22°C° 0 mm 4 mps 723 mmHg 90%
    13:00 +22°C° 0 mm 4 mps 723 mmHg 89%
    14:00 +24°C° 0 mm 3 mps 724 mmHg 78%
    15:00 +25°C° 0 mm 4 mps 724 mmHg 83%
    16:00 +25°C° 0 mm 3 mps 724 mmHg 83%
    17:00 +25°C° 0 mm 4 mps 723 mmHg 85%
    18:00 +24°C° 0.2 mm 3 mps 723 mmHg 90%
    19:00 +22°C° 0 mm 4 mps 723 mmHg 94%
    20:00 +21°C° 0 mm 2 mps 723 mmHg 98%
    21:00 +20°C° 0 mm 2 mps 723 mmHg 98%
    22:00 +20°C° 0 mm 2 mps 723 mmHg 99%
    23:00 +19°C° 0 mm 2 mps 723 mmHg 99%

    Tomorrow, 19 July, Thursday

    Time Temperature Precipitation Wind Pressure Humidity
    00:00 +19°C° 0 mm 2 mps 723 mmHg 98%
    01:00 +19°C° 0 mm 2 mps 723 mmHg 97%
    02:00 +18°C° 0 mm 2 mps 723 mmHg 98%
    03:00 +18°C° 0 mm 3 mps 723 mmHg 99%
    04:00 +18°C° 0 mm 3 mps 724 mmHg 100%
    05:00 +18°C° 0 mm 3 mps 724 mmHg 100%
    06:00 +18°C° 0 mm 3 mps 724 mmHg 100%
    07:00 +19°C° 0 mm 3 mps 724 mmHg 100%
    08:00 +19°C° 0 mm 3 mps 725 mmHg 100%
    09:00 +20°C° 0 mm 3 mps 725 mmHg 100%
    10:00 +20°C° 0 mm 3 mps 726 mmHg 100%
    11:00 +20°C° 0 mm 4 mps 726 mmHg 100%
    12:00 +22°C° 0 mm 4 mps 726 mmHg 98%
    13:00 +22°C° 0 mm 4 mps 726 mmHg 97%
    14:00 +23°C° 0 mm 4 mps 725 mmHg 94%
    15:00 +25°C° 0 mm 4 mps 725 mmHg 90%
    16:00 +25°C° 0 mm 4 mps 725 mmHg 89%
    17:00 +25°C° 0 mm 5 mps 725 mmHg 91%
    18:00 +25°C° 0 mm 5 mps 725 mmHg 92%
    19:00 +23°C° 0 mm 5 mps 725 mmHg 94%
    20:00 +22°C° 0 mm 4 mps 726 mmHg 97%
    21:00 +21°C° 0 mm 4 mps 726 mmHg 99%
    22:00 +21°C° 0 mm 4 mps 726 mmHg 99%
    23:00 +20°C° 0 mm 4 mps 726 mmHg 99%

    Day after tomorrow, 20 July, Friday

    Time Temperature Precipitation Wind Pressure Humidity
    00:00 +20°C° 0 mm 4 mps 727 mmHg 99%
    01:00 +20°C° 0 mm 4 mps 727 mmHg 99%
    02:00 +20°C° 0 mm 4 mps 727 mmHg 99%
    03:00 +19°C° 0 mm 4 mps 726 mmHg 100%
    04:00 +19°C° 0 mm 4 mps 726 mmHg 100%
    05:00 +19°C° 0 mm 4 mps 727 mmHg 100%
    06:00 +19°C° 0 mm 4 mps 727 mmHg 100%
    07:00 +19°C° 0 mm 4 mps 727 mmHg 100%
    08:00 +18°C° 0 mm 4 mps 727 mmHg 100%
    09:00 +19°C° 0 mm 4 mps 727 mmHg 100%
    10:00 +19°C° 0 mm 4 mps 728 mmHg 98%
    11:00 +21°C° 0 mm 4 mps 728 mmHg 97%
    12:00 +22°C° 0 mm 4 mps 728 mmHg 93%
    13:00 +23°C° 0 mm 4 mps 728 mmHg 90%
    14:00 +23°C° 0 mm 4 mps 727 mmHg 88%
    15:00 +25°C° 0 mm 5 mps 727 mmHg 86%
    16:00 +23°C° 0.5 mm 4 mps 727 mmHg 90%
    17:00 +23°C° 0.1 mm 5 mps 727 mmHg 87%
    18:00 +23°C° 0 mm 6 mps 727 mmHg 89%
    19:00 +22°C° 0 mm 6 mps 727 mmHg 92%
    20:00 +21°C° 0 mm 5 mps 728 mmHg 94%
    21:00 +21°C° 0 mm 4 mps 728 mmHg 96%
    22:00 +20°C° 0 mm 4 mps 728 mmHg 98%
    23:00 +20°C° 0 mm 4 mps 728 mmHg 98%

    21 July, Saturday

    Time Temperature Precipitation Wind Pressure Humidity
    00:00 +20°C° 0 mm 5 mps 728 mmHg 97%
    01:00 +19°C° 0 mm 4 mps 728 mmHg 98%
    02:00 +19°C° 0 mm 3 mps 728 mmHg 98%
    03:00 +19°C° 0 mm 4 mps 728 mmHg 98%
    04:00 +18°C° 0 mm 4 mps 728 mmHg 98%
    05:00 +18°C° 0 mm 4 mps 728 mmHg 98%
    06:00 +18°C° 0 mm 4 mps 728 mmHg 98%
    07:00 +19°C° 0 mm 5 mps 729 mmHg 98%
    08:00 +19°C° 0 mm 5 mps 729 mmHg 97%
    09:00 +20°C° 0 mm 5 mps 729 mmHg 96%
    10:00 +21°C° 0 mm 4 mps 730 mmHg 97%
    11:00 +21°C° 0 mm 5 mps 730 mmHg 95%
    12:00 +22°C° 0 mm 5 mps 730 mmHg 94%
    13:00 +23°C° 0 mm 5 mps 730 mmHg 92%
    14:00 +23°C° 0 mm 5 mps 729 mmHg 91%
    15:00 +23°C° 0 mm 5 mps 729 mmHg 87%
    16:00 +23°C° 0 mm 5 mps 729 mmHg 85%
    17:00 +23°C° 0 mm 4 mps 729 mmHg 87%
    18:00 +22°C° 0 mm 4 mps 729 mmHg 89%
    19:00 +22°C° 0 mm 3 mps 729 mmHg 90%
    20:00 +21°C° 0 mm 2 mps 729 mmHg 94%
    21:00 +20°C° 0 mm 2 mps 729 mmHg 96%
    22:00 +20°C° 0 mm 1 mps 729 mmHg 95%
    23:00 +19°C° 0 mm 2 mps 729 mmHg 94%

    22 July, Sunday

    Time Temperature Precipitation Wind Pressure Humidity
    00:00 +19°C° 0 mm 2 mps 729 mmHg 94%
    01:00 +20°C° 0 mm 1 mps 729 mmHg 94%
    02:00 +19°C° 0 mm 1 mps 729 mmHg 92%
    03:00 +19°C° 0 mm 1 mps 728 mmHg 91%
    04:00 +19°C° 0 mm 1 mps 728 mmHg 92%
    05:00 +18°C° 0 mm 1 mps 728 mmHg 93%
    06:00 +16°C° 0 mm 0 mps 728 mmHg 95%
    07:00 +17°C° 0 mm 0 mps 728 mmHg 97%
    08:00 +17°C° 0 mm 0 mps 728 mmHg 99%
    09:00 +20°C° 0 mm 1 mps 728 mmHg 100%
    10:00 +21°C° 0 mm 1 mps 729 mmHg 97%
    11:00 +21°C° 0 mm 2 mps 729 mmHg 96%
    12:00 +23°C° 0 mm 2 mps 728 mmHg 91%
    13:00 +24°C° 0 mm 3 mps 728 mmHg 84%
    14:00 +24°C° 0 mm 3 mps 728 mmHg 85%

    23 July, Monday

    Time Temperature Precipitation Wind Pressure Humidity
    Show more